Location: Ay?beleni
(36.6500°N, 30.3000°E)
Time: 01:14:10
(UTC+00:00)

OE (NEXTSAT) - Pass Details

Date: 09 April 2020
Orbit: 432 x 439 km, 46.0° (Epoch: 23 May)

Event Time Altitude Azimuth Distance (km) Brightness Sun altitude
Rises 18:12:29 0° 241° (WSW) 2,405 8.6 -20.5°
Reaches altitude 10° 18:14:37 10° 242° (WSW) 1,540 7.5 -20.9°
Enters shadow 18:17:54 74° 286° (WNW) 458 4.4 -21.5°
